When you browse on this site, cookies collect data to enhance your experience and personalize the content and advertising you see.
Visit our Privacy Policy to learn more. By continuing to use the site, you agree to this use of cookies and data.
  • Em Portugal
  • Lista de países
  • Para 7 dias
  • Temperatura da água
  • Mapas de satélite
  • Mapa do tempo
  • Widgets de tempo
  • user-avatar
    Iniciar Sessão

    Previsão horária em Santiago del Estero

    Hoje, 25 Maio, Sábado

    Tempo Temperatura Precipitação Vento Pressão Humidade
    00:00 +13°C° 0 mm 3 m/s 743 mmHg 54%
    01:00 +12°C° 0 mm 4 m/s 742 mmHg 57%
    02:00 +12°C° 0 mm 4 m/s 742 mmHg 60%
    03:00 +11°C° 0 mm 4 m/s 742 mmHg 62%
    04:00 +11°C° 0 mm 4 m/s 741 mmHg 64%
    05:00 +11°C° 0 mm 4 m/s 741 mmHg 66%
    06:00 +11°C° 0 mm 4 m/s 741 mmHg 65%
    07:00 +12°C° 0 mm 4 m/s 741 mmHg 65%
    08:00 +12°C° 0 mm 4 m/s 742 mmHg 64%
    09:00 +14°C° 0 mm 5 m/s 742 mmHg 59%
    10:00 +16°C° 0 mm 6 m/s 741 mmHg 54%
    11:00 +17°C° 0 mm 7 m/s 741 mmHg 49%
    12:00 +20°C° 0 mm 7 m/s 741 mmHg 46%
    13:00 +21°C° 0 mm 6 m/s 740 mmHg 42%
    14:00 +23°C° 0 mm 6 m/s 739 mmHg 39%
    15:00 +22°C° 0 mm 5 m/s 739 mmHg 42%
    16:00 +21°C° 0 mm 4 m/s 739 mmHg 45%
    17:00 +20°C° 0 mm 3 m/s 738 mmHg 49%
    18:00 +19°C° 0 mm 3 m/s 739 mmHg 50%
    19:00 +18°C° 0 mm 3 m/s 739 mmHg 52%
    20:00 +17°C° 0 mm 3 m/s 739 mmHg 54%
    21:00 +17°C° 0 mm 3 m/s 739 mmHg 56%
    22:00 +16°C° 0 mm 3 m/s 739 mmHg 59%
    23:00 +16°C° 0 mm 3 m/s 739 mmHg 61%

    Amanhã, 26 Maio, Domingo

    Tempo Temperatura Precipitação Vento Pressão Humidade
    00:00 +14°C° 0 mm 3 m/s 739 mmHg 64%
    01:00 +13°C° 0 mm 3 m/s 739 mmHg 66%
    02:00 +13°C° 0 mm 3 m/s 739 mmHg 69%
    03:00 +12°C° 0 mm 3 m/s 739 mmHg 72%
    04:00 +12°C° 0 mm 3 m/s 739 mmHg 76%
    05:00 +12°C° 0 mm 2 m/s 738 mmHg 79%
    06:00 +13°C° 0 mm 2 m/s 739 mmHg 79%
    07:00 +13°C° 0 mm 2 m/s 739 mmHg 80%
    08:00 +13°C° 0 mm 2 m/s 740 mmHg 80%
    09:00 +15°C° 0 mm 2 m/s 740 mmHg 72%
    10:00 +18°C° 0 mm 3 m/s 740 mmHg 64%
    11:00 +20°C° 0 mm 3 m/s 740 mmHg 55%
    12:00 +21°C° 0 mm 2 m/s 739 mmHg 52%
    13:00 +23°C° 0 mm 2 m/s 739 mmHg 49%
    14:00 +25°C° 0 mm 1 m/s 738 mmHg 46%
    15:00 +24°C° 0 mm 1 m/s 738 mmHg 50%
    16:00 +23°C° 0 mm 1 m/s 738 mmHg 53%
    17:00 +23°C° 0 mm 1 m/s 738 mmHg 56%
    18:00 +21°C° 0 mm 2 m/s 739 mmHg 60%
    19:00 +19°C° 0 mm 2 m/s 740 mmHg 63%
    20:00 +18°C° 0 mm 2 m/s 740 mmHg 67%
    21:00 +18°C° 0 mm 2 m/s 741 mmHg 69%
    22:00 +17°C° 0 mm 2 m/s 741 mmHg 72%
    23:00 +17°C° 0 mm 2 m/s 742 mmHg 74%

    Depois de amanhã, 27 Maio, Segunda-feira

    Tempo Temperatura Precipitação Vento Pressão Humidade
    00:00 +17°C° 0 mm 2 m/s 741 mmHg 75%
    01:00 +16°C° 0 mm 2 m/s 741 mmHg 76%
    02:00 +16°C° 0 mm 2 m/s 741 mmHg 77%
    03:00 +16°C° 0 mm 2 m/s 741 mmHg 78%
    04:00 +16°C° 0 mm 2 m/s 741 mmHg 78%
    05:00 +16°C° 0 mm 3 m/s 741 mmHg 78%
    06:00 +16°C° 0 mm 3 m/s 741 mmHg 78%
    07:00 +16°C° 0 mm 3 m/s 742 mmHg 77%
    08:00 +16°C° 0 mm 2 m/s 742 mmHg 77%
    09:00 +18°C° 0 mm 3 m/s 742 mmHg 70%
    10:00 +20°C° 0 mm 3 m/s 743 mmHg 63%
    11:00 +22°C° 0 mm 3 m/s 743 mmHg 56%
    12:00 +22°C° 0 mm 3 m/s 742 mmHg 53%
    13:00 +24°C° 0 mm 3 m/s 741 mmHg 51%
    14:00 +25°C° 0 mm 3 m/s 740 mmHg 49%
    15:00 +24°C° 0 mm 3 m/s 740 mmHg 51%
    16:00 +24°C° 0 mm 2 m/s 740 mmHg 53%
    17:00 +23°C° 0 mm 2 m/s 740 mmHg 55%
    18:00 +20°C° 0 mm 2 m/s 740 mmHg 59%
    19:00 +19°C° 0 mm 2 m/s 741 mmHg 63%
    20:00 +18°C° 0 mm 1 m/s 741 mmHg 67%
    21:00 +18°C° 0 mm 1 m/s 742 mmHg 71%
    22:00 +16°C° 0 mm 1 m/s 742 mmHg 74%
    23:00 +16°C° 0 mm 1 m/s 742 mmHg 78%

    28 Maio, Terça-feira

    Tempo Temperatura Precipitação Vento Pressão Humidade
    00:00 +16°C° 0 mm 1 m/s 742 mmHg 79%
    01:00 +15°C° 0 mm 1 m/s 741 mmHg 81%
    02:00 +15°C° 0 mm 1 m/s 741 mmHg 82%
    03:00 +15°C° 0 mm 1 m/s 741 mmHg 85%
    04:00 +15°C° 0 mm 1 m/s 741 mmHg 87%
    05:00 +14°C° 0 mm 2 m/s 741 mmHg 89%
    06:00 +15°C° 0 mm 2 m/s 741 mmHg 89%
    07:00 +15°C° 0 mm 2 m/s 741 mmHg 88%
    08:00 +15°C° 0 mm 2 m/s 742 mmHg 88%
    09:00 +16°C° 0 mm 2 m/s 742 mmHg 85%
    10:00 +17°C° 0 mm 2 m/s 742 mmHg 82%
    11:00 +19°C° 0 mm 1 m/s 742 mmHg 79%
    12:00 +20°C° 0 mm 1 m/s 742 mmHg 77%
    13:00 +20°C° 0 mm 1 m/s 741 mmHg 76%
    14:00 +21°C° 0 mm 1 m/s 740 mmHg 74%
    15:00 +21°C° 0 mm 1 m/s 741 mmHg 76%
    16:00 +20°C° 0 mm 1 m/s 741 mmHg 77%
    17:00 +19°C° 0 mm 2 m/s 741 mmHg 79%
    18:00 +19°C° 0 mm 2 m/s 741 mmHg 81%
    19:00 +20°C° 0 mm 1 m/s 742 mmHg 83%
    20:00 +19°C° 0 mm 1 m/s 742 mmHg 85%
    21:00 +19°C° 0.1 mm 1 m/s 742 mmHg 85%
    22:00 +19°C° 0.1 mm 1 m/s 742 mmHg 84%
    23:00 +20°C° 0.1 mm 1 m/s 742 mmHg 84%

    29 Maio, Quarta-feira

    Tempo Temperatura Precipitação Vento Pressão Humidade
    00:00 +18°C° 0.1 mm 2 m/s 742 mmHg 84%
    01:00 +18°C° 0.1 mm 2 m/s 742 mmHg 84%
    02:00 +18°C° 0.1 mm 2 m/s 741 mmHg 84%
    03:00 +18°C° 0 mm 2 m/s 741 mmHg 86%
    04:00 +18°C° 0 mm 1 m/s 741 mmHg 87%
    05:00 +18°C° 0 mm 1 m/s 740 mmHg 88%
    06:00 +18°C° 0 mm 1 m/s 740 mmHg 88%
    07:00 +18°C° 0 mm 1 m/s 740 mmHg 87%
    08:00 +18°C° 0 mm 1 m/s 741 mmHg 86%
    09:00 +19°C° 0 mm 2 m/s 740 mmHg 77%
    10:00 +21°C° 0 mm 3 m/s 740 mmHg 69%
    11:00 +23°C° 0 mm 4 m/s 740 mmHg 60%
    12:00 +23°C° 0 mm 4 m/s 739 mmHg 58%
    13:00 +25°C° 0 mm 3 m/s 739 mmHg 56%
    14:00 +25°C° 0 mm 3 m/s 738 mmHg 54%
    15:00 +24°C° 0 mm 3 m/s 738 mmHg 56%
    16:00 +24°C° 0 mm 3 m/s 738 mmHg 59%
    17:00 +22°C° 0 mm 3 m/s 738 mmHg 62%
    18:00 +22°C° 0 mm 3 m/s 739 mmHg 65%
    19:00 +21°C° 0 mm 3 m/s 739 mmHg 69%
    20:00 +20°C° 0 mm 3 m/s 740 mmHg 72%
    21:00 +20°C° 0 mm 3 m/s 740 mmHg 75%
    22:00 +20°C° 0 mm 3 m/s 740 mmHg 77%
    23:00 +19°C° 0 mm 3 m/s 740 mmHg 80%

    30 Maio, Quinta-feira

    Tempo Temperatura Precipitação Vento Pressão Humidade
    00:00 +19°C° 0 mm 2 m/s 740 mmHg 81%
    01:00 +19°C° 0 mm 2 m/s 740 mmHg 82%
    02:00 +20°C° 0 mm 1 m/s 740 mmHg 83%
    03:00 +19°C° 0 mm 2 m/s 740 mmHg 84%
    04:00 +18°C° 0 mm 2 m/s 740 mmHg 85%
    05:00 +18°C° 0 mm 2 m/s 740 mmHg 87%
    06:00 +18°C° 0 mm 2 m/s 740 mmHg 87%
    07:00 +18°C° 0 mm 2 m/s 741 mmHg 87%
    08:00 +18°C° 0 mm 2 m/s 741 mmHg 88%
    09:00 +19°C° 0 mm 2 m/s 741 mmHg 81%
    10:00 +20°C° 0 mm 2 m/s 741 mmHg 75%
    11:00 +23°C° 0 mm 2 m/s 742 mmHg 68%
    12:00 +23°C° 0 mm 2 m/s 741 mmHg 67%
    13:00 +23°C° 0 mm 2 m/s 740 mmHg 67%
    14:00 +23°C° 0 mm 2 m/s 739 mmHg 66%
    15:00 +23°C° 0 mm 2 m/s 739 mmHg 66%
    16:00 +23°C° 0 mm 2 m/s 739 mmHg 65%
    17:00 +23°C° 0 mm 2 m/s 739 mmHg 65%
    18:00 +21°C° 0 mm 2 m/s 740 mmHg 68%
    19:00 +20°C° 0 mm 2 m/s 740 mmHg 72%
    20:00 +19°C° 0 mm 1 m/s 741 mmHg 75%
    21:00 +19°C° 0 mm 1 m/s 741 mmHg 74%
    22:00 +19°C° 0 mm 1 m/s 741 mmHg 74%
    23:00 +18°C° 0 mm 2 m/s 741 mmHg 74%
    Mostrar mais